Meteo Giornale » Osservazioni meteo Italia » Palermo-Punta Raisi

ore: 14:20 - Osservazioni Meteo Palermo-Punta Raisi
Lat. 38° 11' N Lon. 13° 6' E Alt. 21 metri s.l.m.

poco_nuvoloso Europe/Rome

18 °C

Poco Nuvoloso

Temp. 24 Ore

13 °C

18 °C

Nord

14.8 Km/h

Dew point 12 °C

Umidità 67 %

Visibilità  10 Km

Il sole sorge alle ore 06:10

Il sole tramonta alle ore 19:59

Data e Ora Cielo e Fenomeni T °C DP °C Um. % Pres. hPa Vis. km Vento km/h
Oggi h: 14:20 poco_nuvoloso Poco Nuvoloso 18 12 67 1014 10 N 14.8
Oggi h: 13:50 poco_nuvoloso Poco Nuvoloso 18 12 67 1014 10 N 13
Oggi h: 13:20 poco_nuvoloso Poco Nuvoloso 17 11 67 1015 10 N/NO 13
Oggi h: 12:50 poco_nuvoloso Poco Nuvoloso 18 11 63 1015 10 NO 11.1
Oggi h: 12:20 poco_nuvoloso Poco Nuvoloso 17 11 67 1015 10 N/NO 9.3
Oggi h: 11:50 poco_nuvoloso Poco Nuvoloso 17 11 67 1015 10 N/NO 11.1
Oggi h: 11:20 poco_nuvoloso Poco Nuvoloso 17 11 67 1015 10 N/NO 11.1
Oggi h: 10:50 nuvoloso Nuvoloso 17 11 67 1015 10 N 9.3
Oggi h: 10:20 nuvoloso Nuvoloso 17 10 63 1015 10 NO 9.3
Oggi h: 09:50 nuvoloso Nuvoloso 17 10 63 1015 10 NO 9.3
Oggi h: 09:20 nuvoloso Nuvoloso 16 10 67 1015 10 N/NO 7.4
Oggi h: 08:50 nuvoloso Nuvoloso 16 9 63 1015 10 NO 7.4
Oggi h: 08:20 nuvoloso Nuvoloso 16 9 63 1015 10 NO 9.3
Oggi h: 07:50 nuvoloso Nuvoloso 16 9 63 1014 10 NO 9.3
Oggi h: 07:20 nuvoloso Nuvoloso 16 9 63 1014 10 NO 11.1
Oggi h: 06:50 nuvoloso Nuvoloso 16 9 63 1014 10 N/NO 13
Oggi h: 06:20 poco_nuvoloso Poco Nuvoloso 15 8 62 1014 10 N/NO 9.3
Oggi h: 05:50 poco_nuvoloso Poco Nuvoloso 15 8 62 1014 10 NO 13
Oggi h: 05:20 poco_nuvoloso Poco Nuvoloso 16 9 63 1014 10 O/NO 14.8
Oggi h: 04:50 poco_nuvoloso Poco Nuvoloso 15 9 67 1014 10 N/NO 9.3
Oggi h: 04:20 poco_nuvoloso Poco Nuvoloso 15 10 72 1014 10 N 0
Oggi h: 03:50 poco_nuvoloso Poco Nuvoloso 13 8 71 1014 10 N 5.5
Oggi h: 03:20 poco_nuvoloso Poco Nuvoloso 13 8 71 1014 10 N 3.7
Oggi h: 02:50 poco_nuvoloso Poco Nuvoloso 13 8 71 1014 10 N 5.5
Oggi h: 02:20 poco_nuvoloso Poco Nuvoloso 15 9 67 1014 10 N 5.5
Oggi h: 01:50 poco_nuvoloso Poco Nuvoloso 15 9 67 1014 10 N/NO 7.4
Oggi h: 01:20 poco_nuvoloso Poco Nuvoloso 15 9 67 1014 10 N/NO 7.4
Oggi h: 00:50 poco_nuvoloso Poco Nuvoloso 15 9 67 1014 10 N 5.5
Oggi h: 00:20 poco_nuvoloso Poco Nuvoloso 15 9 67 1014 10 N 11.1
Ieri h: 23:50 poco_nuvoloso Poco Nuvoloso 15 9 67 1014 10 N 11.1
Ieri h: 23:20 poco_nuvoloso Poco Nuvoloso 16 9 63 1014 10 N 13
Ieri h: 22:50 nuvoloso Nuvoloso 16 9 63 1014 10 N 13
Ieri h: 22:20 nuvoloso Nuvoloso 16 10 67 1014 10 N 16.7
Ieri h: 21:50 poco_nuvoloso Poco Nuvoloso 16 9 63 1014 10 N 18.5
Ieri h: 21:20 poco_nuvoloso Poco Nuvoloso 16 9 63 1014 10 N/NE 18.5
Ieri h: 20:50 poco_nuvoloso Poco Nuvoloso 16 9 63 1013 10 N/NE 22.2
Ieri h: 20:20 nuvoloso Nuvoloso 16 9 63 1013 10 N 18.5
Ieri h: 19:50 nuvoloso Nuvoloso 16 10 67 1013 10 N/NE 22.2
Ieri h: 19:20 nuvoloso Nuvoloso 16 10 67 1013 10 N 24
Ieri h: 18:50 nuvoloso Nuvoloso 17 10 63 1013 10 N 24
Ieri h: 18:20 poco_nuvoloso Poco Nuvoloso 17 10 63 1013 10 N 22.2
Ieri h: 17:50 poco_nuvoloso Poco Nuvoloso 17 10 63 1013 10 N 22.2
Ieri h: 17:20 poco_nuvoloso Poco Nuvoloso 17 10 63 1012 10 N 22.2
Ieri h: 16:50 poco_nuvoloso Poco Nuvoloso 17 10 63 1012 10 N 20.3
Ieri h: 16:20 poco_nuvoloso Poco Nuvoloso 17 11 67 1012 10 N 20.3
Ieri h: 15:50 nuvoloso Nuvoloso 17 11 67 1012 10 N 22.2
Ieri h: 15:20 poco_nuvoloso Poco Nuvoloso 17 11 67 1013 10 N 20.3
Ieri h: 14:50 nuvoloso Nuvoloso 17 10 63 1013 10 N 20.3